カタログに戻る

ARIANE 2 DEB

運用中GTO
NORAD 26726·DEBRIS·🇫🇷 France

打ち上げ Jan 27, 1989 から Guiana Space Centre

Loading…

TLE

経年Source: Space-Track

元期: Sep 14, 2026, 10:54 UTC

1 26726U 89006D   26257.45439685 -.00000062  00000-0  11824-2 0  9999
2 26726   8.1998  60.7182 7165564 106.9478 282.0848  2.27691724213247

AllMySatでARIANE 2 DEBをリアルタイム追跡

Download on the App Store